Location: Unspecified
(54.2468°N, 0.0000°E)
Time: 09:41:14
(UTC+00:00)

Daily predictions for brighter satellites

Satellite Brightness Start Highest point End
(mag) Time Altitude Azimuth Time Altitude Azimuth Time Altitude Azimuth
Okean 3 Rocket 3.5 19:09:18 10° S 19:13:40 84° E 19:18:03 10° NNE
Helios 1A Rocket 3.4 19:13:23 10° NE 19:16:06 24° E 19:18:48 10° SSE
Cosmos 2227 4.3 19:11:20 10° NNW 19:17:03 66° NE 19:22:46 10° SE
NOSS 3-1 (A) 3.2 19:14:26 10° SW 19:19:18 87° NW 19:25:28 10° NE
CZ-4 R/B 1.5 19:16:22 10° SSE 19:20:07 52° ENE 19:23:51 10° N
USA 59 Rocket 1.7 19:19:18 10° WNW 19:21:23 17° NNW 19:23:28 10° NNE
Feng Yun 1-1 Rocket 4.5 19:16:33 10° SE 19:22:05 56° ENE 19:27:29 10° N
NOSS 2-2 (E) 3.3 19:19:30 10° NW 19:22:52 64° NE 19:27:14 10° ESE
Terra 2.4 19:18:43 10° SE 19:23:02 38° ENE 19:27:22 10° N
USA 234 3.3 19:18:54 10° ENE 19:25:29 78° SSE 19:32:04 10° WSW
CENTAUR R/B 3.4 19:21:19 10° NW 19:29:16 85° SW 19:38:38 10° SE
Geosat 4.2 19:25:05 10° NE 19:29:58 49° ESE 19:34:48 10° SSW
NOSS 2-2 (C) 4.0 19:27:19 10° WNW 19:30:48 53° SW 19:35:26 10° SSE
Sich 1 3.4 19:26:36 10° SSW 19:30:53 68° WNW 19:35:09 10° N
NOSS 3-2 (C) 4.4 19:25:15 10° NW 19:31:30 48° NNE 19:39:11 10° E
CSL-04 Debris 4.2 19:26:18 10° SSE 19:31:39 82° ENE 19:37:03 10° NNW
Cosmos 2333 Rocket 3.2 19:27:22 10° SSE 19:31:53 25° ESE 19:36:23 10° NE
Spot 2 Rocket 4.4 19:28:21 10° ESE 19:32:43 31° ENE 19:37:07 10° N
Cosmos 2228 Rocket 3.8 19:29:14 10° N 19:33:29 37° ENE 19:37:41 10° SE
Okean 1-7 3.2 19:30:48 10° N 19:34:49 46° ENE 19:38:47 10° SSE
Cosmos 1709 Rocket 4.0 19:28:43 10° S 19:35:03 86° E 19:41:21 10° NNE
Cosmos 2219 Rocket 3.9 19:34:51 10° ESE 19:36:12 11° E 19:37:36 10° E
BREEZE-M DEB (TANK) 4.0 19:31:44 10° W 19:37:01 33° SSW 19:39:23 10° SE
Cosmos 1953 3.3 19:34:45 10° SE 19:37:30 21° E 19:40:18 10° NE
CZ-4B R/B 3.4 19:33:27 10° SE 19:38:47 57° ENE 19:44:16 10° N
CZ-4B DEB 4.2 19:34:39 10° SSE 19:40:04 76° ENE 19:45:34 10° NNW
Cosmos 2369 3.7 19:34:45 10° SSW 19:40:20 68° ESE 19:45:58 10° NE
Exosat Rocket 4.1 19:35:36 10° NNW 19:40:37 50° NE 19:46:28 11° SE
Cosmos 2278 Rocket 4.1 19:37:30 10° NNW 19:41:33 19° NNE 19:45:35 10° ENE
CZ-4B R/B 3.7 19:38:15 10° S 19:41:46 76° WSW 19:45:24 10° NNW
Okean-O 3.6 19:38:49 11° ESE 19:42:24 30° ENE 19:46:14 10° N
Cosmos 1340 Rocket 3.7 19:41:04 10° SSE 19:44:07 25° E 19:47:12 10° NE
Lacrosse 4 Rocket 3.3 19:41:19 10° WNW 19:44:47 27° WSW 19:48:16 10° S
Aureole 1 Rocket 4.3 19:46:07 12° E 19:46:07 12° E 19:47:00 10° ENE
Cosmos 1354 Rocket 4.4 19:40:52 10° S 19:45:46 40° ESE 19:50:43 10° NE
NOSS 3-2 (A) 4.0 19:39:19 10° NW 19:46:06 72° NE 19:53:42 13° ESE
Cosmos 1408 Rocket 3.8 19:42:40 10° SSW 19:47:06 74° WNW 19:51:32 10° N
BlueWalker 3 2.1 19:43:56 10° W 19:47:27 54° SSW 19:50:14 15° ESE
Cosmos 374 Rocket 4.3 19:45:04 10° SSW 19:48:45 55° SE 19:52:42 10° NE
Cosmos 2263 Rocket 4.5 19:48:39 10° NW 19:52:55 23° WSW 19:57:08 10° SSW
CBERS 1 LM4 rocket 4.3 19:48:36 10° SSE 19:53:21 78° ENE 19:58:05 10° NNW
Meteor 1-31 Rocket 3.2 19:51:48 10° S 19:55:15 56° W 19:58:44 10° NNW
BREEZE-M DEB (TANK) 4.4 19:53:37 10° SW 19:55:43 20° S 19:58:45 13° SE
Resurs 01 Rocket 4.3 19:54:05 10° SW 19:57:26 21° W 20:00:49 10° NW
Cosmos 2074 Rocket 4.2 19:51:38 10° SSE 19:57:32 48° E 20:03:31 10° NNE
Cosmos 1697 Rocket 4.3 19:52:31 10° WSW 19:57:46 37° NW 20:03:02 10° NNE
Meteor 2-10 Rocket 4.4 19:53:20 10° SSW 19:58:34 53° WNW 20:03:38 10° N
Cosmos 1503 Rocket 4.0 19:53:35 10° SSW 19:58:53 68° ESE 20:04:13 10° NNE
ERS-1 Rocket 2.9 19:54:03 10° SSE 19:59:02 81° ENE 20:04:05 10° NNW
CZ-4B R/B 4.2 19:57:16 16° E 19:59:03 22° ENE 20:01:54 10° N
Cosmos 1862 Rocket 3.6 19:56:37 10° N 20:01:07 87° E 20:05:33 10° S
Cosmos 1707 Rocket 3.5 19:58:39 10° N 20:03:02 85° E 20:07:20 10° SSE
Meteor 1-22 Rocket 4.3 20:00:02 10° S 20:05:25 58° E 20:11:05 10° NNE
CSL-04 Rocket 4.5 20:00:28 10° S 20:05:51 54° W 20:11:19 10° NNW
ATLAS 5 CENTAUR R/B 0.7 20:05:14 10° SSW 20:08:07 51° SE 20:11:16 10° NE
Cosmos 1538 Rocket 4.0 20:03:22 10° NNW 20:08:33 68° ENE 20:12:31 17° SE
Cosmos 1980 Rocket 3.1 20:04:20 10° SW 20:09:51 53° NW 20:15:25 10° NNE
USA 229 DEB 3.7 20:06:46 10° SSW 20:12:29 47° ESE 20:18:56 10° NE
USA 229 3.7 20:06:50 10° SSW 20:12:33 46° ESE 20:19:00 10° NE
OPS 8737 4.2 20:09:23 10° NW 20:12:36 71° SW 20:14:13 25° SE
Cosmos 2181 Rocket 4.2 20:08:12 10° NNW 20:14:21 74° W 20:20:26 10° S
Okean O Rocket 1.7 20:11:37 17° SE 20:14:48 57° ENE 20:19:07 10° N
Cosmos 2237 4.2 20:09:57 10° SSW 20:15:41 89° NW 20:21:26 10° NNE
Cosmos 1680 Rocket 4.4 20:11:08 10° NNW 20:15:56 34° NE 20:18:57 19° ESE
Cosmos 1486 Rocket 4.4 20:11:26 10° SW 20:16:38 69° WNW 20:21:50 10° NNE
Iridium 82 4.0 20:14:53 10° N 20:18:03 82° E 20:20:13 18° S
CZ-4B R/B 4.1 20:16:10 20° ESE 20:18:58 37° ENE 20:23:26 10° N
Cosmos 2278 3.8 20:14:31 10° S 20:19:57 50° ESE 20:25:26 10° NE
USA 245 4.1 20:19:33 25° E 20:20:45 32° ENE 20:24:21 10° N
Meteor 1-15 Rocket 4.3 20:15:31 10° S 20:20:56 55° E 20:26:22 10° NNE
SKYMED 3 4.3 20:18:02 10° NNE 20:21:56 60° ESE 20:25:46 10° S
Meteor 1-24 Rocket 3.6 20:17:40 10° NNW 20:23:02 84° WSW 20:28:27 10° S
ATLAS 3B R/B 3.1 20:18:22 10° SSW 20:25:44 53° SE 20:33:20 10° NE
Cosmos 1743 Rocket 4.4 20:22:19 10° SSW 20:26:37 52° WNW 20:30:58 10° N
NOSS 2-3 (E) 4.5 20:22:22 10° NW 20:26:42 49° NNE 20:30:21 20° E
Cosmos 1666 Rocket 3.4 20:22:56 10° S 20:27:14 84° E 20:31:33 10° NNE
MetOp-B 4.4 20:21:55 10° S 20:27:16 69° WSW 20:32:40 10° NNW
Cosmos 1441 Rocket 3.1 20:25:37 10° NNW 20:28:59 67° W 20:31:16 19° S
Cosmos 923 Rocket 4.4 20:24:06 10° NNW 20:29:19 51° NE 20:32:13 25° ESE
Nadezhda 3 Rocket 4.0 20:26:39 10° N 20:32:55 89° ENE 20:38:32 13° S
USA 186 1.1 20:35:29 59° NNW 20:35:29 59° NNW 20:37:16 10° NNW
Cosmos 1633 Rocket 3.0 20:30:52 10° S 20:35:16 85° E 20:39:41 10° NNE
Cosmos 2360 Rocket 2.4 20:32:25 10° S 20:37:43 45° ESE 20:43:05 10° NE
Meteor 2-5 Rocket 3.9 20:33:08 10° NNW 20:38:41 73° W 20:43:40 13° S
Cosmos 1818 4.2 20:33:29 10° WSW 20:38:52 59° NW 20:44:17 10° NE
Cosmos 2322 Rocket 2.3 20:35:12 10° S 20:40:37 51° ESE 20:46:02 10° NE
Cosmos 1844 Rocket 3.8 20:36:09 10° NW 20:41:21 40° WSW 20:46:26 10° S
Cosmos 1943 Rocket 3.3 20:36:23 10° NNW 20:41:31 34° NE 20:44:36 20° E
SeaSat 1 2.8 20:39:29 27° ESE 20:41:55 51° NE 20:46:40 10° NNW
Cosmos 2154 Rocket 4.0 20:36:41 10° S 20:42:58 83° E 20:49:20 10° NNE
Cosmos 1937 Rocket 4.2 20:42:13 28° SE 20:43:30 32° ESE 20:48:09 10° NE
SL-16 R/B 2.1 20:38:03 10° SSW 20:43:44 83° ESE 20:49:27 10° NE
ADEOS 4.3 20:40:45 10° S 20:45:48 51° W 20:50:55 10° NNW
Helios 1A Rocket 4.4 20:45:18 10° N 20:48:11 29° WNW 20:51:02 10° SW
SL-08 R/B 3.3 20:45:06 10° NNE 20:49:57 88° ESE 20:54:50 10° SSW
Cosmos 2333 4.4 20:45:59 10° S 20:51:18 46° ESE 20:56:38 10° NE
Cosmos 990 Rocket 4.1 20:46:16 10° SSW 20:51:27 75° WNW 20:56:37 10° NNE
CZ-4 R/B 3.8 20:51:38 10° SW 20:54:26 19° W 20:57:13 10° NW
NOSS 2-3 (D) 4.2 20:50:06 10° NW 20:54:38 62° NE 20:57:21 30° ESE
Cosmos 372 Rocket 3.9 20:51:03 10° S 20:56:11 63° ESE 21:01:23 10° NNE
Terra 3.1 20:56:15 10° SSW 21:00:35 37° W 21:04:57 10° NNW
Cosmos 2098 4.3 21:00:34 42° SSW 21:01:31 76° W 21:04:31 10° N
Ariane Rocket 3.0 21:00:16 36° SE 21:02:11 63° ENE 21:07:10 10° N
Cosmos 2184 Rocket 4.3 20:56:46 10° SSW 21:03:07 71° WNW 21:09:31 10° N
CZ-2C R/B 2.3 21:06:35 59° NNE 21:06:35 59° NNE 21:09:09 10° N
Cosmos 2341 Rocket 4.2 21:05:32 33° SE 21:08:00 50° E 21:14:01 10° NNE
USA 234 3.4 21:02:00 10° ENE 21:08:33 73° N 21:15:05 10° W
COSMOS 2428 4.3 21:10:15 18° ENE 21:10:15 18° ENE 21:12:36 10° NE
USA 238 DEB 4.4 21:02:59 10° NW 21:09:49 53° NNE 21:14:56 21° E
USA 238 4.4 21:03:08 10° NW 21:09:59 53° NNE 21:15:07 21° E
USA 59 Rocket 1.5 21:08:45 10° NNW 21:11:00 19° NNE 21:12:05 16° NE
Spot 2 Rocket 4.1 21:08:02 20° S 21:11:25 53° W 21:16:22 10° NNW
Cosmos 1953 3.5 21:08:55 10° SW 21:12:16 37° WNW 21:15:40 10° N
Cosmos 2333 Rocket 2.3 21:09:57 10° SW 21:15:38 76° NW 21:21:20 10° NNE
YAOGAN 11 4.2 21:11:30 10° NNE 21:15:44 72° WNW 21:18:38 20° SSW
SL-24 R/B - RUBIN 2 3.6 21:12:49 10° NW 21:17:12 70° NE 21:18:10 51° ESE
Okean-O 3.6 21:16:09 22° SSW 21:18:34 42° W 21:22:46 10° NNW
Cosmos 2219 Rocket 2.2 21:16:23 31° S 21:18:55 56° ESE 21:24:22 10° NE
CENTAUR R/B 4.5 21:12:16 10° WNW 21:19:29 34° WSW 21:26:49 12° S
Cosmos 1340 Rocket 4.3 21:16:11 10° SW 21:19:33 33° WNW 21:22:56 10° N
Cosmos 1809 Rocket 4.4 21:15:13 10° N 21:21:21 71° ENE 21:23:39 40° SSE
Cosmos 1703 Rocket 4.3 21:18:09 10° NNW 21:22:21 47° W 21:24:19 27° SSW
NOSS 3-2 (C) 3.9 21:16:03 10° NW 21:23:01 84° SW 21:26:58 35° SE
Cosmos 2369 Rocket 4.3 21:19:12 10° NNW 21:23:03 18° NNE 21:26:54 10° ENE
BlueWalker 3 3.8 21:21:47 10° W 21:23:54 18° SW 21:23:54 18° SW
Cosmos 2278 Rocket 2.7 21:21:29 10° NNW 21:27:02 49° NE 21:28:49 36° E
Aureole 1 Rocket 2.9 21:26:06 39° WSW 21:27:03 56° WNW 21:30:06 10° NNE
SPOT 3 Rocket 3.7 21:27:22 37° S 21:29:26 69° WSW 21:34:40 10° NNW
CZ-4B R/B 3.4 21:31:59 42° SW 21:32:36 46° W 21:36:10 10° NNW
Cosmos 1048 Rocket 4.3 21:28:33 10° NNW 21:33:33 51° NE 21:34:31 45° E
Cosmos 2242 Rocket 3.7 21:32:19 10° N 21:36:50 59° ENE 21:37:02 59° E
Cosmos 1933 Rocket 3.6 21:36:04 50° SSW 21:37:08 77° WNW 21:41:33 10° N
Cosmos 864 Rocket 4.4 21:38:52 40° S 21:41:19 76° E 21:47:36 10° NNE
Cosmos 1378 Rocket 3.9 21:37:43 10° N 21:41:56 51° ENE 21:41:56 51° ENE
ASTEX 1 3.4 21:41:02 51° SSW 21:42:14 77° W 21:47:09 10° N
Meteor 1-21 Rocket 4.1 21:36:58 10° NNW 21:42:34 86° WSW 21:44:06 50° S
Helios 1B rocket 3.4 21:44:38 31° NNE 21:44:38 31° NNE 21:47:01 10° N
IRS-1C Rocket 4.4 21:45:54 40° SSW 21:47:36 60° WSW 21:52:51 10° NNW
ATLAS 5 CENTAUR R/B 2.8 21:47:36 10° W 21:50:22 29° NNW 21:53:29 10° NE
NOSS 2-3 (C) 4.0 21:46:13 10° NW 21:50:53 85° SW 21:51:56 60° SE
Okean O Rocket 3.7 21:48:52 14° SW 21:51:19 22° W 21:54:45 10° NW
Meteor 2-15 4.3 21:50:35 51° SSE 21:52:05 72° E 21:58:10 10° NNE
Cosmos 1898 Rocket 3.7 21:47:49 16° SW 21:52:06 69° WNW 21:57:20 10° NNE
Cosmos 1727 Rocket 4.0 21:46:04 10° N 21:52:26 69° ENE 21:53:58 52° SE
Cosmos 494 Rocket 4.0 21:47:44 10° NNW 21:52:52 70° WSW 21:53:41 59° SSW
ARIANE 5 R/B 4.1 21:54:33 24° NE 21:54:33 24° NE 21:57:54 10° N
Cosmos 858 Rocket 4.3 21:55:57 65° S 21:56:42 78° ESE 22:01:59 10° NNE
BREEZE-M DEB (TANK) 4.0 21:53:57 10° WSW 21:55:08 24° WSW 21:55:08 24° WSW
CZ-4B R/B 4.4 21:56:00 32° SW 21:57:35 41° W 22:02:12 10° NNW
Cosmos 1733 Rocket 3.7 21:58:39 44° NE 21:58:39 44° NE 22:01:57 10° NNE
Cosmos 1680 Rocket 3.9 21:53:06 10° NNW 21:58:12 52° WSW 21:59:11 46° SW
Cosmos 614 Rocket 4.4 21:55:46 10° NNW 22:00:50 48° NE 22:01:23 46° ENE
SL-8 Rocket 4.0 21:58:19 34° SSW 22:01:11 77° WNW 22:07:30 10° N
USA 229 DEB 4.0 21:57:03 10° WSW 22:03:14 63° NNW 22:10:20 10° NE
USA 229 4.0 21:57:06 10° WSW 22:03:17 63° NNW 22:10:24 10° NE
Helios 1A 4.3 22:00:05 10° NNE 22:02:16 28° NE 22:02:16 28° NE
Meteor 2-21 4.4 21:58:41 10° NNW 22:04:48 82° W 22:06:17 54° S
Cosmos 2366 rocket 4.0 22:03:51 38° SSW 22:06:21 77° WNW 22:12:33 10° N
Cosmos 1869 Rocket 4.0 22:06:21 52° WSW 22:06:55 56° WNW 22:11:16 10° N
Cosmos 1241 Rocket 4.4 22:02:31 10° NW 22:08:46 74° SW 22:09:55 59° S
Cosmos 2112 Rocket 4.5 22:07:20 10° NW 22:12:23 49° WSW 22:13:01 46° SW
USA 32 4.2 22:12:34 55° SW 22:13:35 70° W 22:18:49 10° N
Aureole 3 4.2 22:12:42 10° NNW 22:15:06 43° NNW 22:15:06 43° NNW
ATLAS 3B R/B 3.3 22:08:47 10° WSW 22:16:31 66° NNW 22:24:24 10° NE
NOSS 2-3 (E) 4.5 22:12:01 10° NW 22:16:47 52° SW 22:17:04 51° SW
SeaSat 1 3.3 22:19:06 36° WSW 22:19:26 37° WSW 22:23:59 10° NW
Cosmos 2218 Rocket 4.2 22:19:21 39° SW 22:21:41 67° WNW 22:27:50 10° N
Cosmos 2360 Rocket 3.2 22:16:21 10° WSW 22:21:45 46° NW 22:27:12 10° NNE
Cosmos 2221 Rocket 4.3 22:19:31 10° N 22:23:02 47° NNE 22:23:02 47° NNE
Cosmos 2322 Rocket 3.4 22:19:29 10° WSW 22:24:48 41° NW 22:30:08 10° NNE
Cosmos 1937 Rocket 4.2 22:22:11 24° WSW 22:25:10 53° WNW 22:30:23 10° NNE
Timation 2 Rocket 3.8 22:19:21 10° NW 22:25:33 86° WSW 22:26:26 68° SSE
Cosmos 1943 Rocket 2.1 22:20:03 10° NW 22:25:42 70° WSW 22:26:05 67° SW
Cosmos 2322 3.6 22:28:44 70° E 22:28:44 70° E 22:34:11 10° NE
SL-16 R/B 4.1 22:23:32 10° W 22:28:28 30° NW 22:33:26 10° NNE
Cosmos 2292 Rocket 4.2 22:22:06 10° N 22:29:01 89° W 22:29:43 72° S
Cosmos 2123 Rocket 3.8 22:27:50 10° N 22:34:05 77° ENE 22:34:45 69° SE
Meteor 2-21 Rocket 4.4 22:28:18 10° NNW 22:34:21 72° W 22:35:15 62° SSW
Cosmos 2237 Rocket 3.4 22:37:12 29° ENE 22:37:12 29° ENE 22:40:33 10° NE
Cosmos 1656 Rocket 4.0 22:34:04 10° NNW 22:39:22 51° NE 22:39:46 50° ENE
CZ-2C R/B 4.1 22:40:13 25° ENE 22:41:15 27° NE 22:45:48 10° N
Cosmos 1025 Rocket 3.9 22:44:12 10° NNW 22:47:21 47° NW 22:47:21 47° NW
Cosmos 1821 Rocket 4.3 22:47:23 44° SW 22:49:07 59° WNW 22:55:21 10° N
USA 234 3.3 22:48:51 40° E 22:51:26 79° NNE 22:58:00 10° WNW
COSMOS 2428 2.6 22:52:09 86° ENE 22:52:09 86° ENE 22:57:50 10° NNE
Cosmos 1934 Rocket 3.9 22:54:45 69° ESE 22:54:56 70° E 23:01:13 10° NNE
Cosmos 2239 Rocket 4.4 22:57:08 67° SW 22:57:52 76° WNW 23:04:06 10° N
USA 59 Rocket 2.1 22:56:53 10° NW 22:57:37 16° NW 22:57:37 16° NW
Cosmos 2333 Rocket 4.3 22:56:12 10° W 23:00:51 25° NNW 23:05:30 10° NNE
USA 238 DEB 3.8 22:54:01 10° NW 23:01:15 74° SW 23:02:21 64° S
USA 238 3.8 22:54:10 10° NW 23:01:25 74° SW 23:02:32 64° S
Spot 4 4.2 23:03:38 61° N 23:03:38 61° N 23:07:34 10° NNW
Cosmos 2219 Rocket 3.4 22:57:53 10° WSW 23:03:06 38° NW 23:08:21 10° NNE
NOSS 0 Rocket 3.8 23:07:12 76° E 23:07:12 76° E 23:13:15 10° NE
Cosmos 2369 Rocket 2.8 23:03:07 10° NNW 23:08:32 46° NE 23:09:09 44° ENE
Cosmos 1605 Rocket 4.2 23:09:38 53° E 23:09:38 53° E 23:15:14 10° NNE
Cosmos 2278 Rocket 3.0 23:05:45 10° NW 23:10:38 41° W 23:10:38 41° W
MetOp-A 4.5 23:14:55 50° NNE 23:14:55 50° NNE 23:18:53 10° N
SL-08 R/B 4.4 23:15:09 70° WSW 23:15:39 74° WNW 23:21:49 10° N
ALOS 2 3.6 23:18:59 46° NNW 23:18:59 46° NNW 23:22:07 10° NNW
Cosmos 2346 Rocket 4.4 23:13:29 10° N 23:19:35 74° ENE 23:19:38 74° E
USA 281 4.3 23:17:49 25° E 23:20:52 37° NE 23:26:48 10° NNW
ARIANE 5 R/B 3.9 23:31:55 35° NW 23:31:55 35° NW 23:34:42 10° NNW
ATLAS 5 CENTAUR R/B 3.7 23:30:52 10° NW 23:33:27 20° N 23:36:21 10° NE
Cosmos 1125 Rocket 3.9 23:38:06 59° NNE 23:38:06 59° NNE 23:42:23 10° NNE
SL-16 R/B 3.5 23:39:57 28° ENE 23:39:57 28° ENE 23:43:22 10° NE
Cosmos 1140 Rocket 4.2 23:35:09 10° NNW 23:39:59 47° NE 23:39:59 47° NE
Molniya-1 4.3 23:40:45 71° NNE 23:40:45 71° NNE 23:49:39 10° NE
NOSS 3-4 (A) 3.9 23:47:14 45° ENE 23:47:14 45° ENE 23:51:34 10° NE
NOSS 3-4 (C) 3.9 23:47:41 46° ENE 23:47:41 46° ENE 23:52:04 10° NE
